Year,Month,Day,Hour,Minute,Value (Times are PST for barometer in hPa)
2017,11,26,00,00,994.60
2017,11,26,00,01,994.50
2017,11,26,00,03,994.50
2017,11,26,00,04,994.50
2017,11,26,00,30,993.40
2017,11,26,00,31,993.40
2017,11,26,00,32,993.40
2017,11,26,00,33,993.40
2017,11,26,00,34,993.40
2017,11,26,00,35,993.20
2017,11,26,00,36,992.90
2017,11,26,00,37,993.00
2017,11,26,00,38,993.10
2017,11,26,00,39,993.00
2017,11,26,00,40,993.20
2017,11,26,00,41,993.20
2017,11,26,00,42,993.10
2017,11,26,00,43,993.30
2017,11,26,00,44,993.30
2017,11,26,00,45,993.30
2017,11,26,00,46,993.30
2017,11,26,00,47,993.20
2017,11,26,00,48,993.40
2017,11,26,00,49,993.40
2017,11,26,00,50,993.40
2017,11,26,00,51,993.20
2017,11,26,00,52,993.10
2017,11,26,00,53,993.20
2017,11,26,00,54,993.30
2017,11,26,00,55,993.30
2017,11,26,00,56,993.30
2017,11,26,00,57,993.10
2017,11,26,00,58,993.10
2017,11,26,00,59,993.10
2017,11,26,01,00,993.10
2017,11,26,01,01,993.10
2017,11,26,01,02,993.10
2017,11,26,01,03,993.00
2017,11,26,01,04,993.00
2017,11,26,01,05,993.00
2017,11,26,01,06,993.00
2017,11,26,01,07,993.10
2017,11,26,01,09,993.10
2017,11,26,01,30,992.90
2017,11,26,01,31,992.90
2017,11,26,01,32,992.90
2017,11,26,01,33,992.80
2017,11,26,01,34,992.80
2017,11,26,01,35,992.80
2017,11,26,01,36,992.60
2017,11,26,01,37,992.40
2017,11,26,01,38,992.50
2017,11,26,01,39,992.40
2017,11,26,01,40,992.30
2017,11,26,01,41,992.40
2017,11,26,01,42,992.40
2017,11,26,01,43,992.40
2017,11,26,01,44,992.40
2017,11,26,01,45,992.00
2017,11,26,01,46,992.10
2017,11,26,01,47,991.80
2017,11,26,01,48,991.90
2017,11,26,01,49,991.90
2017,11,26,01,50,991.80
2017,11,26,01,51,991.80
2017,11,26,01,52,991.80
2017,11,26,01,53,991.90
2017,11,26,01,54,991.90
2017,11,26,01,55,991.90
2017,11,26,01,56,991.80
2017,11,26,01,57,991.90
2017,11,26,01,58,991.70
2017,11,26,01,59,991.70
2017,11,26,02,00,991.80
2017,11,26,02,01,991.60
2017,11,26,02,02,991.70
2017,11,26,02,03,991.50
2017,11,26,02,04,991.50
2017,11,26,02,05,991.60
2017,11,26,02,06,991.70
2017,11,26,02,07,991.40
2017,11,26,02,08,991.40
2017,11,26,02,09,991.40
2017,11,26,02,10,991.30
2017,11,26,02,12,991.30
2017,11,26,02,13,991.40
2017,11,26,02,14,991.40
2017,11,26,02,30,991.30
2017,11,26,02,31,991.30
2017,11,26,02,32,991.30
2017,11,26,02,33,991.30
2017,11,26,02,34,991.30
2017,11,26,02,35,991.30
2017,11,26,02,36,991.10
2017,11,26,02,37,990.90
2017,11,26,02,38,990.90
2017,11,26,02,39,990.80
2017,11,26,02,40,991.00
2017,11,26,02,41,990.90
2017,11,26,02,42,990.90
2017,11,26,02,43,990.80
2017,11,26,02,44,990.80
2017,11,26,02,45,990.70
2017,11,26,02,46,990.60
2017,11,26,02,47,990.40
2017,11,26,02,48,990.50
2017,11,26,02,49,990.50
2017,11,26,02,50,990.80
2017,11,26,02,51,990.70
2017,11,26,02,52,990.80
2017,11,26,02,53,990.70
2017,11,26,02,54,990.70
2017,11,26,02,55,990.60
2017,11,26,02,56,990.70
2017,11,26,02,57,990.70
2017,11,26,02,58,990.80
2017,11,26,02,59,990.80
2017,11,26,03,00,990.80
2017,11,26,03,01,990.50
2017,11,26,03,02,990.40
2017,11,26,03,03,990.50
2017,11,26,03,04,990.30
2017,11,26,03,05,990.30
2017,11,26,03,06,990.30
2017,11,26,03,07,990.10
2017,11,26,03,08,990.30
2017,11,26,03,09,990.40
2017,11,26,03,10,990.40
2017,11,26,03,11,990.30
2017,11,26,03,12,990.30
2017,11,26,03,14,990.40
2017,11,26,03,30,990.60
2017,11,26,03,31,990.40
2017,11,26,03,32,990.30
2017,11,26,03,33,990.30
2017,11,26,03,34,990.60
2017,11,26,03,35,990.60
2017,11,26,03,36,990.70
2017,11,26,03,37,990.70
2017,11,26,03,38,990.80
2017,11,26,03,39,990.80
2017,11,26,03,40,990.70
2017,11,26,03,41,990.60
2017,11,26,03,42,990.70
2017,11,26,03,43,990.80
2017,11,26,03,44,990.80
2017,11,26,03,45,990.80
2017,11,26,03,46,990.90
2017,11,26,03,47,991.00
2017,11,26,03,48,991.10
2017,11,26,03,49,990.90
2017,11,26,03,50,990.80
2017,11,26,03,51,990.70
2017,11,26,03,52,990.60
2017,11,26,03,53,990.60
2017,11,26,03,54,990.50
2017,11,26,03,55,990.40
2017,11,26,03,56,990.60
2017,11,26,03,57,990.80
2017,11,26,03,58,990.80
2017,11,26,03,59,990.90
2017,11,26,04,00,991.00
2017,11,26,04,01,991.00
2017,11,26,04,02,991.00
2017,11,26,04,03,990.80
2017,11,26,04,04,990.90
2017,11,26,04,05,990.90
2017,11,26,04,06,991.10
2017,11,26,04,08,991.10
2017,11,26,04,09,991.30
2017,11,26,04,30,991.50
2017,11,26,04,31,991.40
2017,11,26,04,32,991.30
2017,11,26,04,33,991.30
2017,11,26,04,34,991.10
2017,11,26,04,35,990.90
2017,11,26,04,36,990.80
2017,11,26,04,37,990.90
2017,11,26,04,38,990.90
2017,11,26,04,39,990.90
2017,11,26,04,40,990.90
2017,11,26,04,41,990.80
2017,11,26,04,42,990.90
2017,11,26,04,43,991.00
2017,11,26,04,44,991.20
2017,11,26,04,45,991.10
2017,11,26,04,46,991.20
2017,11,26,04,47,991.10
2017,11,26,04,48,990.90
2017,11,26,04,49,990.90
2017,11,26,04,50,991.10
2017,11,26,04,51,991.30
2017,11,26,04,52,991.30
2017,11,26,04,53,991.30
2017,11,26,04,54,991.30
2017,11,26,04,55,991.30
2017,11,26,04,56,991.40
2017,11,26,04,57,991.40
2017,11,26,04,58,991.50
2017,11,26,04,59,991.50
2017,11,26,05,00,991.50
2017,11,26,05,02,991.50
2017,11,26,05,03,991.50
2017,11,26,05,04,991.40
2017,11,26,05,30,990.90
2017,11,26,05,31,990.80
2017,11,26,05,32,990.90
2017,11,26,05,33,990.80
2017,11,26,05,34,990.80
2017,11,26,05,35,990.80
2017,11,26,05,36,990.80
2017,11,26,05,37,990.80
2017,11,26,05,38,990.80
2017,11,26,05,39,990.80
2017,11,26,05,40,990.90
2017,11,26,05,41,990.80
2017,11,26,05,42,990.90
2017,11,26,05,43,991.00
2017,11,26,05,44,991.10
2017,11,26,05,45,991.20
2017,11,26,05,46,991.30
2017,11,26,05,47,991.30
2017,11,26,05,48,991.30
2017,11,26,05,49,991.30
2017,11,26,05,50,991.30
2017,11,26,05,51,991.40
2017,11,26,05,52,991.40
2017,11,26,05,53,991.50
2017,11,26,05,54,991.60
2017,11,26,05,55,991.70
2017,11,26,05,56,991.80
2017,11,26,05,57,991.80
2017,11,26,05,58,991.70
2017,11,26,05,59,991.60
2017,11,26,06,00,991.60
2017,11,26,06,02,991.80
2017,11,26,06,03,991.90
2017,11,26,06,04,992.00
2017,11,26,06,30,992.30
2017,11,26,06,31,992.40
2017,11,26,06,32,992.40
2017,11,26,06,33,992.40
2017,11,26,06,34,992.50
2017,11,26,06,35,992.50
2017,11,26,06,36,992.60
2017,11,26,06,37,992.70
2017,11,26,06,38,992.70
2017,11,26,06,39,992.70
2017,11,26,06,40,992.70
2017,11,26,06,41,992.80
2017,11,26,06,42,992.90
2017,11,26,06,43,992.90
2017,11,26,06,44,992.90
2017,11,26,06,45,992.90
2017,11,26,06,46,993.00
2017,11,26,06,47,993.00
2017,11,26,06,48,993.00
2017,11,26,06,49,993.00
2017,11,26,06,50,993.00
2017,11,26,06,51,993.00
2017,11,26,06,52,992.90
2017,11,26,06,53,993.00
2017,11,26,06,54,993.10
2017,11,26,06,55,993.20
2017,11,26,06,56,993.30
2017,11,26,06,57,993.20
2017,11,26,06,58,993.30
2017,11,26,06,59,993.30
2017,11,26,07,00,993.20
2017,11,26,07,01,993.10
2017,11,26,07,02,993.10
2017,11,26,07,03,993.10
2017,11,26,07,04,993.00
2017,11,26,07,05,992.90
2017,11,26,07,06,992.90
2017,11,26,07,07,992.90
2017,11,26,07,08,992.90
2017,11,26,07,09,992.90
2017,11,26,07,10,992.90
2017,11,26,07,12,993.00
2017,11,26,07,30,992.90
2017,11,26,07,31,992.90
2017,11,26,07,32,992.90
2017,11,26,07,33,993.10
2017,11,26,07,34,993.00
2017,11,26,07,35,992.90
2017,11,26,07,36,992.90
2017,11,26,07,37,992.90
2017,11,26,07,38,992.90
2017,11,26,07,39,992.90
2017,11,26,07,40,993.00
2017,11,26,07,41,993.10
2017,11,26,07,42,993.20
2017,11,26,07,43,993.20
2017,11,26,07,44,993.10
2017,11,26,07,45,993.30
2017,11,26,07,46,993.30
2017,11,26,07,47,993.30
2017,11,26,07,48,993.30
2017,11,26,07,49,993.30
2017,11,26,07,50,993.30
2017,11,26,07,51,993.30
2017,11,26,07,52,993.40
2017,11,26,07,53,993.40
2017,11,26,07,54,993.40
2017,11,26,07,55,993.40
2017,11,26,07,56,993.40
2017,11,26,07,57,993.40
2017,11,26,07,58,993.40
2017,11,26,07,59,993.40
2017,11,26,08,00,993.40
2017,11,26,08,01,993.40
2017,11,26,08,03,993.40
2017,11,26,08,04,993.40
2017,11,26,08,30,993.30
2017,11,26,08,31,993.30
2017,11,26,08,32,993.40
2017,11,26,08,33,993.40
2017,11,26,08,34,993.30
2017,11,26,08,35,993.40
2017,11,26,08,36,993.40
2017,11,26,08,37,993.40
2017,11,26,08,38,993.40
2017,11,26,08,39,993.40
2017,11,26,08,40,993.40
2017,11,26,08,41,993.40
2017,11,26,08,42,993.40
2017,11,26,08,43,993.40
2017,11,26,08,44,993.40
2017,11,26,08,45,993.40
2017,11,26,08,46,993.40
2017,11,26,08,47,993.40
2017,11,26,08,48,993.40
2017,11,26,08,49,993.40
2017,11,26,08,50,993.40
2017,11,26,08,51,993.40
2017,11,26,08,52,993.40
2017,11,26,08,53,993.40
2017,11,26,08,54,993.40
2017,11,26,08,55,993.40
2017,11,26,08,56,993.40
2017,11,26,08,57,993.40
2017,11,26,08,58,993.50
2017,11,26,08,59,993.50
2017,11,26,09,00,993.50
2017,11,26,09,01,993.50
2017,11,26,09,02,993.50
2017,11,26,09,04,993.50
2017,11,26,09,30,993.80
2017,11,26,09,31,993.80
2017,11,26,09,32,993.70
2017,11,26,09,33,993.80
2017,11,26,09,34,993.80
2017,11,26,09,35,993.80
2017,11,26,09,36,993.90
2017,11,26,09,37,993.90
2017,11,26,09,38,993.90
2017,11,26,09,39,993.80
2017,11,26,09,40,993.80
2017,11,26,09,41,993.90
2017,11,26,09,42,993.90
2017,11,26,09,43,993.80
2017,11,26,09,44,993.90
2017,11,26,09,45,993.90
2017,11,26,09,46,993.90
2017,11,26,09,47,993.90
2017,11,26,09,48,993.90
2017,11,26,09,49,993.90
2017,11,26,09,50,993.90
2017,11,26,09,51,993.80
2017,11,26,09,52,993.80
2017,11,26,09,53,993.80
2017,11,26,09,54,993.80
2017,11,26,09,55,993.80
2017,11,26,09,56,993.80
2017,11,26,09,57,993.90
2017,11,26,09,58,993.90
2017,11,26,09,59,993.90
2017,11,26,10,00,993.90
2017,11,26,10,01,993.70
2017,11,26,10,02,993.80
2017,11,26,10,03,993.70
2017,11,26,10,04,993.70
2017,11,26,10,06,993.80
2017,11,26,10,07,993.90
2017,11,26,10,08,993.90
2017,11,26,10,09,993.90
2017,11,26,10,30,994.30
2017,11,26,10,31,994.40
2017,11,26,10,32,994.50
2017,11,26,10,33,994.50
2017,11,26,10,34,994.50
2017,11,26,10,35,994.50
2017,11,26,10,36,994.50
2017,11,26,10,37,994.60
2017,11,26,10,38,994.60
2017,11,26,10,39,994.70
2017,11,26,10,40,994.70
2017,11,26,10,41,994.80
2017,11,26,10,42,994.90
2017,11,26,10,43,995.00
2017,11,26,10,44,995.00
2017,11,26,10,45,995.00
2017,11,26,10,46,995.10
2017,11,26,10,47,995.00
2017,11,26,10,48,995.10
2017,11,26,10,49,995.10
2017,11,26,10,50,995.30
2017,11,26,10,51,995.10
2017,11,26,10,52,995.20
2017,11,26,10,53,995.30
2017,11,26,10,54,995.40
2017,11,26,10,55,995.40
2017,11,26,10,56,995.40
2017,11,26,10,57,995.40
2017,11,26,10,58,995.50
2017,11,26,10,59,995.50
2017,11,26,11,00,995.50
2017,11,26,11,01,995.50
2017,11,26,11,02,995.50
2017,11,26,11,03,995.50
2017,11,26,11,04,995.50
2017,11,26,11,05,995.50
2017,11,26,11,07,995.50
2017,11,26,11,30,996.00
2017,11,26,11,31,996.00
2017,11,26,11,32,996.00
2017,11,26,11,33,996.10
2017,11,26,11,34,996.20
2017,11,26,11,35,996.30
2017,11,26,11,36,996.30
2017,11,26,11,37,996.30
2017,11,26,11,38,996.30
2017,11,26,11,39,996.00
2017,11,26,11,40,996.00
2017,11,26,11,41,996.00
2017,11,26,11,42,996.00
2017,11,26,11,43,996.00
2017,11,26,11,44,996.00
2017,11,26,11,45,996.00
2017,11,26,11,46,995.70
2017,11,26,11,47,995.90
2017,11,26,11,48,995.90
2017,11,26,11,49,995.90
2017,11,26,11,50,995.90
2017,11,26,11,51,996.00
2017,11,26,11,52,996.00
2017,11,26,11,53,996.00
2017,11,26,11,54,996.00
2017,11,26,11,55,996.00
2017,11,26,11,56,996.00
2017,11,26,11,57,996.00
2017,11,26,11,58,996.00
2017,11,26,11,59,996.00
2017,11,26,12,00,995.90
2017,11,26,12,01,995.90
2017,11,26,12,03,995.80
2017,11,26,12,04,995.80
2017,11,26,12,30,996.50
2017,11,26,12,31,996.50
2017,11,26,12,32,996.50
2017,11,26,12,33,996.50
2017,11,26,12,34,996.50
2017,11,26,12,35,996.50
2017,11,26,12,36,996.50
2017,11,26,12,37,996.60
2017,11,26,12,38,996.60
2017,11,26,12,39,996.60
2017,11,26,12,40,996.60
2017,11,26,12,41,996.70
2017,11,26,12,42,996.70
2017,11,26,12,43,996.70
2017,11,26,12,44,996.70
2017,11,26,12,45,996.60
2017,11,26,12,46,996.60
2017,11,26,12,47,996.60
2017,11,26,12,48,996.60
2017,11,26,12,49,996.60
2017,11,26,12,50,996.60
2017,11,26,12,51,996.60
2017,11,26,12,52,996.60
2017,11,26,12,53,996.60
2017,11,26,12,54,996.50
2017,11,26,12,55,996.60
2017,11,26,12,56,996.70
2017,11,26,12,57,996.80
2017,11,26,12,58,996.80
2017,11,26,12,59,996.80
2017,11,26,13,00,996.80
2017,11,26,13,02,996.80
2017,11,26,13,03,996.70
2017,11,26,13,04,996.60
2017,11,26,13,30,996.60
2017,11,26,13,31,996.50
2017,11,26,13,32,996.50
2017,11,26,13,33,996.50
2017,11,26,13,34,996.50
2017,11,26,13,35,996.50
2017,11,26,13,36,996.60
2017,11,26,13,37,996.60
2017,11,26,13,38,996.60
2017,11,26,13,39,996.60
2017,11,26,13,40,996.50
2017,11,26,13,41,996.50
2017,11,26,13,42,996.50
2017,11,26,13,43,996.60
2017,11,26,13,44,996.50
2017,11,26,13,45,996.60
2017,11,26,13,46,996.50
2017,11,26,13,47,996.50
2017,11,26,13,48,996.60
2017,11,26,13,49,996.60
2017,11,26,13,50,996.70
2017,11,26,13,51,996.80
2017,11,26,13,52,996.90
2017,11,26,13,53,997.10
2017,11,26,13,54,997.00
2017,11,26,13,55,997.10
2017,11,26,13,56,997.10
2017,11,26,13,57,997.10
2017,11,26,13,59,997.10
2017,11,26,14,30,997.70
2017,11,26,14,31,997.70
2017,11,26,14,32,997.80
2017,11,26,14,33,997.80
2017,11,26,14,34,997.70
2017,11,26,14,35,997.80
2017,11,26,14,36,997.90
2017,11,26,14,37,998.10
2017,11,26,14,38,998.10
2017,11,26,14,39,998.20
2017,11,26,14,40,998.40
2017,11,26,14,41,998.30
2017,11,26,14,42,998.40
2017,11,26,14,43,998.50
2017,11,26,14,44,998.50
2017,11,26,14,45,998.50
2017,11,26,14,46,998.50
2017,11,26,14,47,998.50
2017,11,26,14,48,998.30
2017,11,26,14,49,998.30
2017,11,26,14,50,998.30
2017,11,26,14,51,998.30
2017,11,26,14,52,998.30
2017,11,26,14,53,998.30
2017,11,26,14,54,998.20
2017,11,26,14,55,998.20
2017,11,26,14,56,998.30
2017,11,26,14,57,998.60
2017,11,26,14,58,998.60
2017,11,26,14,59,998.90
2017,11,26,15,00,998.90
2017,11,26,15,01,999.00
2017,11,26,15,02,998.90
2017,11,26,15,03,999.00
2017,11,26,15,04,999.10
2017,11,26,15,05,999.10
2017,11,26,15,07,999.20
2017,11,26,15,08,999.20
2017,11,26,15,09,999.20
2017,11,26,15,30,999.40
2017,11,26,15,31,999.50
2017,11,26,15,32,999.60
2017,11,26,15,33,999.70
2017,11,26,15,34,999.70
2017,11,26,15,35,999.70
2017,11,26,15,36,999.70
2017,11,26,15,37,999.70
2017,11,26,15,38,999.70
2017,11,26,15,39,999.70
2017,11,26,15,40,999.70
2017,11,26,15,41,999.70
2017,11,26,15,42,999.70
2017,11,26,15,43,999.80
2017,11,26,15,44,999.80
2017,11,26,15,45,999.80
2017,11,26,15,46,999.80
2017,11,26,15,47,999.80
2017,11,26,15,48,999.90
2017,11,26,15,49,999.90
2017,11,26,15,50,999.90
2017,11,26,15,51,999.90
2017,11,26,15,52,999.90
2017,11,26,15,53,1000.00
2017,11,26,15,54,1000.00
2017,11,26,15,55,1000.10
2017,11,26,15,56,1000.10
2017,11,26,15,57,1000.20
2017,11,26,15,58,1000.20
2017,11,26,15,59,1000.20
2017,11,26,16,00,1000.20
2017,11,26,16,01,1000.20
2017,11,26,16,02,1000.20
2017,11,26,16,03,1000.20
2017,11,26,16,04,1000.20
2017,11,26,16,05,1000.20
2017,11,26,16,06,1000.20
2017,11,26,16,07,1000.20
2017,11,26,16,09,1000.20
2017,11,26,16,26,1000.70
2017,11,26,17,30,1001.60
2017,11,26,17,31,1001.60
2017,11,26,17,32,1001.50
2017,11,26,17,33,1001.40
2017,11,26,17,34,1001.50
2017,11,26,18,30,1001.90
2017,11,26,18,31,1001.90
2017,11,26,18,32,1002.00
2017,11,26,18,33,1002.00
2017,11,26,18,34,1002.00
2017,11,26,19,30,1002.80
2017,11,26,19,31,1002.80
2017,11,26,19,32,1002.80
2017,11,26,19,33,1002.80
2017,11,26,19,34,1002.90
2017,11,26,20,30,1004.10
2017,11,26,20,31,1004.10
2017,11,26,20,32,1004.20
2017,11,26,20,33,1004.20
2017,11,26,20,34,1004.30
2017,11,26,21,30,1004.80
2017,11,26,21,31,1004.80
2017,11,26,21,32,1004.80
2017,11,26,21,33,1004.80
2017,11,26,21,34,1004.80
2017,11,26,22,30,1005.60
2017,11,26,22,31,1005.60
2017,11,26,22,32,1005.60
2017,11,26,22,33,1005.60
2017,11,26,22,34,1005.70
2017,11,26,23,30,1006.00
2017,11,26,23,31,1005.90
2017,11,26,23,32,1005.90
2017,11,26,23,33,1006.00
2017,11,26,23,34,1006.00
